CPA432 VHHH-RCKH

Flight info

Callsign CPA432
Flight time 0h 59m
Altitude 33000
Route DALOL V631 ENVAR M750 DADON G581 PORCH
Aircraft A359/H-SDE2E3GHIJ1J3J4J5LM1ORWXY/LB1D1

Departure

Time 2026-04-17 04:55
Airport Hong Kong International Airport (VHHH)

Arrival

Time 2026-04-17 05:55
Airport Kaohsiung International Airport (RCKH)
Time Latitude Longitude Altitude Speed Heading
2026-04-17 04:22 22.31365 113.93365 38 ft 0 kts 25°
2026-04-17 04:42 22.31354 113.93359 38 ft 3 kts 25°
2026-04-17 04:43 22.31336 113.93350 38 ft 3 kts 30°
2026-04-17 04:43 22.31320 113.93337 38 ft 3 kts 47°
2026-04-17 04:43 22.31308 113.93320 37 ft 3 kts 64°
2026-04-17 04:43 22.31300 113.93300 37 ft 3 kts 76°
2026-04-17 04:44 22.31296 113.93279 38 ft 3 kts 79°
2026-04-17 04:44 22.31292 113.93258 38 ft 3 kts 70°
2026-04-17 04:44 22.31285 113.93238 38 ft 3 kts 70°
2026-04-17 04:44 22.31282 113.93230 38 ft 0 kts 70°
2026-04-17 04:48 22.31283 113.93232 38 ft 2 kts 70°
2026-04-17 04:49 22.31291 113.93265 38 ft 8 kts 79°
2026-04-17 04:49 22.31278 113.93325 38 ft 7 kts 133°
2026-04-17 04:49 22.31235 113.93352 38 ft 8 kts 152°
2026-04-17 04:49 22.31172 113.93377 37 ft 11 kts 161°
2026-04-17 04:50 22.31093 113.93406 38 ft 13 kts 161°
2026-04-17 04:50 22.31043 113.93422 38 ft 0 kts 169°
2026-04-17 04:50 22.31042 113.93422 38 ft 1 kts 171°
2026-04-17 04:51 22.31029 113.93418 38 ft 4 kts 195°
2026-04-17 04:51 22.30996 113.93393 38 ft 8 kts 225°
2026-04-17 04:51 22.30955 113.93328 38 ft 13 kts 241°
2026-04-17 04:51 22.30901 113.93239 38 ft 15 kts 219°
2026-04-17 04:52 22.30853 113.93229 38 ft 0 kts 173°
2026-04-17 04:52 22.30849 113.93230 38 ft 1 kts 170°
2026-04-17 04:52 22.30827 113.93235 39 ft 6 kts 165°
2026-04-17 04:53 22.30782 113.93248 41 ft 8 kts 173°
2026-04-17 04:53 22.30724 113.93215 41 ft 12 kts 238°
2026-04-17 04:53 22.30690 113.93120 40 ft 15 kts 250°
2026-04-17 04:55 22.28275 113.86029 2033 ft 224 kts 238°
2026-04-17 04:55 22.27393 113.84597 2549 ft 232 kts 236°
2026-04-17 04:55 22.26462 113.83151 3165 ft 237 kts 235°
2026-04-17 04:56 22.25321 113.81881 3792 ft 241 kts 215°
2026-04-17 04:56 22.23746 113.81266 4407 ft 245 kts 188°
2026-04-17 04:56 22.22023 113.81150 5011 ft 250 kts 182°
2026-04-17 04:56 22.20281 113.81320 5612 ft 255 kts 165°
2026-04-17 04:57 22.18738 113.82242 6211 ft 257 kts 138°
2026-04-17 04:57 22.17491 113.83632 6809 ft 260 kts 132°
2026-04-17 04:57 22.16348 113.85166 7354 ft 265 kts 122°
2026-04-17 04:57 22.15529 113.86954 7921 ft 268 kts 113°
2026-04-17 04:58 22.14828 113.88832 8464 ft 271 kts 112°
2026-04-17 04:58 22.14130 113.90734 8881 ft 273 kts 112°
2026-04-17 04:58 22.13635 113.92724 9025 ft 277 kts 98°
2026-04-17 04:58 22.13414 113.94829 9183 ft 290 kts 95°
2026-04-17 04:59 22.13230 113.97045 9545 ft 301 kts 95°
2026-04-17 04:59 22.13041 113.99307 10043 ft 305 kts 95°
2026-04-17 04:59 22.12840 114.01629 10351 ft 318 kts 96°
2026-04-17 04:59 22.12626 114.04051 10563 ft 332 kts 96°
2026-04-17 05:00 22.12399 114.06578 10805 ft 344 kts 95°
2026-04-17 05:00 22.12028 114.09175 11016 ft 357 kts 101°
2026-04-17 05:00 22.11537 114.11842 11218 ft 369 kts 102°
2026-04-17 05:00 22.11035 114.14591 11451 ft 378 kts 101°
2026-04-17 05:01 22.10537 114.17395 11818 ft 382 kts 101°
2026-04-17 05:01 22.10051 114.20192 11963 ft 385 kts 101°
2026-04-17 05:01 22.09562 114.23041 12010 ft 387 kts 101°
2026-04-17 05:01 22.09074 114.25917 12354 ft 390 kts 101°
2026-04-17 05:02 22.08584 114.28792 12818 ft 391 kts 101°
2026-04-17 05:02 22.08092 114.31683 13186 ft 394 kts 101°
2026-04-17 05:02 22.07547 114.34594 13566 ft 396 kts 105°
2026-04-17 05:02 22.06482 114.37327 13948 ft 396 kts 122°
2026-04-17 05:03 22.04982 114.39828 14328 ft 397 kts 126°
2026-04-17 05:03 22.03412 114.42291 14685 ft 400 kts 126°
2026-04-17 05:03 22.01829 114.44772 15054 ft 403 kts 127°
2026-04-17 05:03 22.00261 114.47241 15395 ft 405 kts 126°
2026-04-17 05:04 21.98667 114.49760 15758 ft 408 kts 126°
2026-04-17 05:04 21.97063 114.52296 16133 ft 410 kts 126°
2026-04-17 05:04 21.95439 114.54825 16497 ft 411 kts 128°
2026-04-17 05:04 21.93706 114.57286 16837 ft 413 kts 130°
2026-04-17 05:05 21.91937 114.59747 17176 ft 416 kts 130°
2026-04-17 05:05 21.90170 114.62220 17528 ft 418 kts 130°
2026-04-17 05:05 21.88399 114.64714 17844 ft 420 kts 130°
2026-04-17 05:05 21.86638 114.67200 18155 ft 423 kts 130°
2026-04-17 05:06 21.84849 114.69732 18493 ft 425 kts 130°
2026-04-17 05:06 21.83057 114.72269 18799 ft 427 kts 130°
2026-04-17 05:06 21.81253 114.74823 19097 ft 429 kts 130°
2026-04-17 05:06 21.79497 114.77311 19423 ft 430 kts 130°
2026-04-17 05:07 21.77628 114.79960 19739 ft 433 kts 130°
2026-04-17 05:07 21.75946 114.82662 20021 ft 438 kts 121°
2026-04-17 05:07 21.74791 114.85715 20310 ft 443 kts 106°
2026-04-17 05:07 21.74313 114.88964 20575 ft 447 kts 96°
2026-04-17 05:08 21.74164 114.92324 20855 ft 450 kts 92°
2026-04-17 05:08 21.74159 114.95691 21122 ft 452 kts 90°
2026-04-17 05:08 21.74211 114.99081 21392 ft 454 kts 89°
2026-04-17 05:08 21.74273 115.02489 21666 ft 455 kts 90°
2026-04-17 05:09 21.74320 115.05906 21933 ft 457 kts 90°
2026-04-17 05:09 21.74348 115.09336 22178 ft 459 kts 90°
2026-04-17 05:09 21.74361 115.12780 22418 ft 462 kts 90°
2026-04-17 05:09 21.74362 115.16180 22663 ft 463 kts 91°
2026-04-17 05:10 21.74356 115.19672 22905 ft 465 kts 91°
2026-04-17 05:10 21.74349 115.23157 23128 ft 467 kts 91°
2026-04-17 05:10 21.74342 115.26667 23503 ft 470 kts 91°
2026-04-17 05:10 21.74330 115.30189 23975 ft 471 kts 91°
2026-04-17 05:11 21.74323 115.33725 24230 ft 474 kts 91°
2026-04-17 05:11 21.74317 115.37278 24371 ft 477 kts 91°
2026-04-17 05:11 21.74306 115.40862 24555 ft 480 kts 91°
2026-04-17 05:11 21.74295 115.44455 24775 ft 482 kts 91°
2026-04-17 05:12 21.74282 115.48062 24989 ft 483 kts 91°
2026-04-17 05:12 21.74273 115.50457 25142 ft 484 kts 91°
2026-04-17 05:12 21.74259 115.54085 25371 ft 486 kts 91°
2026-04-17 05:12 21.74243 115.57736 25574 ft 489 kts 91°
2026-04-17 05:13 21.74229 115.61390 25845 ft 489 kts 91°
2026-04-17 05:13 21.74217 115.65052 26071 ft 490 kts 91°
2026-04-17 05:13 21.74204 115.68730 26262 ft 493 kts 91°
2026-04-17 05:13 21.74190 115.72417 26479 ft 494 kts 91°
2026-04-17 05:14 21.74174 115.76124 26708 ft 496 kts 91°
2026-04-17 05:14 21.74158 115.79775 26916 ft 498 kts 91°
2026-04-17 05:14 21.74140 115.83575 27132 ft 499 kts 91°
2026-04-17 05:14 21.74120 115.87269 27416 ft 502 kts 91°
2026-04-17 05:15 21.74100 115.91048 27901 ft 505 kts 91°
2026-04-17 05:15 21.74080 115.94833 28405 ft 508 kts 92°
2026-04-17 05:15 21.74058 115.98646 28846 ft 511 kts 92°
2026-04-17 05:15 21.74035 116.02486 29290 ft 514 kts 92°
2026-04-17 05:16 21.74012 116.06350 29695 ft 518 kts 92°
2026-04-17 05:16 21.73987 116.10242 30087 ft 522 kts 92°
2026-04-17 05:16 21.73960 116.14160 30473 ft 525 kts 92°
2026-04-17 05:16 21.73933 116.18097 30861 ft 528 kts 92°
2026-04-17 05:17 21.73905 116.22056 31194 ft 531 kts 92°
2026-04-17 05:17 21.73876 116.26039 31494 ft 535 kts 92°
2026-04-17 05:17 21.73846 116.30001 31815 ft 538 kts 92°
2026-04-17 05:17 21.73814 116.34032 32131 ft 540 kts 92°
2026-04-17 05:18 21.73782 116.38105 32404 ft 544 kts 92°
2026-04-17 05:18 21.73747 116.42188 32690 ft 546 kts 91°
2026-04-17 05:18 21.73712 116.46285 32926 ft 549 kts 91°
2026-04-17 05:18 21.73714 116.50374 32963 ft 545 kts 89°
2026-04-17 05:19 21.74875 116.58370 32972 ft 543 kts 76°
2026-04-17 05:19 21.76865 116.66217 32968 ft 543 kts 73°
2026-04-17 05:20 21.79022 116.74015 32964 ft 543 kts 73°
2026-04-17 05:20 21.81138 116.81754 32962 ft 542 kts 73°
2026-04-17 05:21 21.83228 116.89554 32958 ft 543 kts 74°
2026-04-17 05:21 21.85304 116.97368 32959 ft 542 kts 74°
2026-04-17 05:22 21.87322 117.04991 32958 ft 542 kts 74°
2026-04-17 05:22 21.89426 117.12946 32964 ft 541 kts 74°
2026-04-17 05:23 21.91490 117.20764 32963 ft 541 kts 74°
2026-04-17 05:23 21.93544 117.28561 32961 ft 541 kts 74°
2026-04-17 05:24 21.95589 117.36327 32960 ft 541 kts 74°
2026-04-17 05:24 21.97623 117.44078 32962 ft 541 kts 74°
2026-04-17 05:25 22.00260 117.51643 32965 ft 540 kts 60°
2026-04-17 05:25 22.04014 117.58650 32961 ft 540 kts 57°
2026-04-17 05:26 22.07962 117.65570 32961 ft 541 kts 57°
2026-04-17 05:26 22.11925 117.72480 32962 ft 541 kts 57°
2026-04-17 05:27 22.15858 117.79394 32954 ft 541 kts 57°
2026-04-17 05:27 22.19778 117.86325 32953 ft 541 kts 57°
2026-04-17 05:28 22.23658 117.93215 32949 ft 540 kts 58°
2026-04-17 05:28 22.26435 118.00737 32951 ft 542 kts 78°
2026-04-17 05:29 22.26896 118.04764 32952 ft 540 kts 89°
2026-04-17 05:29 22.26748 118.08812 32953 ft 539 kts 96°
2026-04-17 05:29 22.25944 118.16856 32953 ft 539 kts 99°
2026-04-17 05:30 22.24947 118.24877 32953 ft 539 kts 99°
2026-04-17 05:30 22.23961 118.32896 32953 ft 539 kts 99°
2026-04-17 05:31 22.23009 118.40933 32953 ft 540 kts 99°
2026-04-17 05:31 22.22071 118.48974 32953 ft 540 kts 99°
2026-04-17 05:32 22.21140 118.56963 32943 ft 540 kts 99°
2026-04-17 05:32 22.20197 118.65000 32943 ft 540 kts 99°
2026-04-17 05:33 22.19247 118.73037 32945 ft 540 kts 99°
2026-04-17 05:33 22.18295 118.81067 32928 ft 539 kts 99°
2026-04-17 05:34 22.17336 118.89097 32924 ft 540 kts 99°
2026-04-17 05:34 22.16370 118.97151 32659 ft 543 kts 99°
2026-04-17 05:35 22.15889 119.01188 32404 ft 545 kts 99°
2026-04-17 05:35 22.15407 119.05201 31647 ft 543 kts 99°
2026-04-17 05:35 22.14915 119.09245 30689 ft 545 kts 99°
2026-04-17 05:35 22.14423 119.13300 29716 ft 546 kts 99°
2026-04-17 05:36 22.13929 119.17359 28799 ft 545 kts 99°
2026-04-17 05:36 22.13438 119.21397 28027 ft 540 kts 99°
2026-04-17 05:36 22.12950 119.25402 27307 ft 535 kts 99°
2026-04-17 05:36 22.12467 119.29362 26614 ft 530 kts 99°
2026-04-17 05:37 22.11988 119.33278 25911 ft 524 kts 99°
2026-04-17 05:37 22.11512 119.37160 25216 ft 519 kts 99°
2026-04-17 05:37 22.11041 119.41004 24531 ft 514 kts 99°
2026-04-17 05:37 22.10580 119.44759 23853 ft 508 kts 98°
2026-04-17 05:38 22.10116 119.48527 23186 ft 502 kts 98°
2026-04-17 05:38 22.09659 119.52239 22516 ft 496 kts 98°
2026-04-17 05:38 22.09206 119.55905 21848 ft 490 kts 98°
2026-04-17 05:38 22.08757 119.59528 21188 ft 484 kts 98°
2026-04-17 05:39 22.08312 119.63116 20531 ft 478 kts 98°
2026-04-17 05:39 22.07879 119.66603 19886 ft 472 kts 98°
2026-04-17 05:39 22.07446 119.70102 19232 ft 466 kts 98°
2026-04-17 05:39 22.07017 119.73549 18579 ft 460 kts 98°
2026-04-17 05:40 22.06588 119.76953 17913 ft 455 kts 98°
2026-04-17 05:40 22.06161 119.80326 17257 ft 450 kts 98°
2026-04-17 05:40 22.05747 119.83607 16596 ft 444 kts 98°
2026-04-17 05:40 22.05332 119.86894 15951 ft 439 kts 98°
2026-04-17 05:41 22.04923 119.90137 15297 ft 433 kts 97°
2026-04-17 05:41 22.04557 119.93340 14649 ft 428 kts 94°
2026-04-17 05:41 22.04692 119.96512 14001 ft 421 kts 79°
2026-04-17 05:41 22.05605 119.99457 13352 ft 412 kts 61°
2026-04-17 05:42 22.07238 120.01948 12720 ft 404 kts 48°
2026-04-17 05:42 22.09100 120.04198 12092 ft 399 kts 46°
2026-04-17 05:42 22.10967 120.06395 11483 ft 394 kts 46°
2026-04-17 05:42 22.12784 120.08533 10872 ft 390 kts 46°
2026-04-17 05:43 22.14608 120.10681 10629 ft 374 kts 45°
2026-04-17 05:43 22.16298 120.12676 10499 ft 356 kts 45°
2026-04-17 05:43 22.17930 120.14603 10372 ft 339 kts 45°
2026-04-17 05:43 22.19481 120.16435 10233 ft 324 kts 45°
2026-04-17 05:44 22.20968 120.18193 10103 ft 310 kts 45°
2026-04-17 05:44 22.22393 120.19877 9966 ft 297 kts 45°
2026-04-17 05:44 22.23766 120.21500 9828 ft 291 kts 45°
2026-04-17 05:44 22.25160 120.23144 9573 ft 301 kts 45°
2026-04-17 05:45 22.26576 120.24812 9295 ft 301 kts 45°
2026-04-17 05:45 22.27984 120.26478 8931 ft 300 kts 45°
2026-04-17 05:45 22.29390 120.28143 8605 ft 298 kts 45°
2026-04-17 05:45 22.30784 120.29793 8298 ft 297 kts 45°
2026-04-17 05:46 22.32171 120.31436 7999 ft 295 kts 45°
2026-04-17 05:46 22.33531 120.33045 7738 ft 294 kts 45°
2026-04-17 05:46 22.34908 120.34678 7464 ft 293 kts 45°
2026-04-17 05:46 22.36280 120.36302 7157 ft 291 kts 45°
2026-04-17 05:47 22.37638 120.37916 6869 ft 290 kts 45°
2026-04-17 05:47 22.38997 120.39528 6552 ft 288 kts 45°
2026-04-17 05:47 22.40345 120.41128 6253 ft 287 kts 46°
2026-04-17 05:47 22.41673 120.42705 5952 ft 286 kts 45°
2026-04-17 05:48 22.42950 120.44345 5640 ft 286 kts 54°
2026-04-17 05:48 22.43834 120.46278 5341 ft 286 kts 67°
2026-04-17 05:48 22.44536 120.48290 5023 ft 285 kts 69°
2026-04-17 05:48 22.45220 120.50296 4723 ft 284 kts 69°
2026-04-17 05:49 22.45905 120.52278 4422 ft 281 kts 69°
2026-04-17 05:49 22.46782 120.54142 4113 ft 277 kts 50°
2026-04-17 05:49 22.48300 120.55364 3933 ft 274 kts 20°
2026-04-17 05:49 22.50153 120.55734 3600 ft 271 kts
2026-04-17 05:50 22.52023 120.55789 3511 ft 265 kts 359°
2026-04-17 05:50 22.53823 120.55820 3434 ft 251 kts 359°
2026-04-17 05:50 22.55469 120.55416 3208 ft 239 kts 328°
2026-04-17 05:50 22.56538 120.54157 3033 ft 227 kts 296°
2026-04-17 05:51 22.57077 120.52598 2877 ft 217 kts 281°
2026-04-17 05:51 22.57206 120.51012 2754 ft 207 kts 269°
2026-04-17 05:51 22.57244 120.49470 2499 ft 203 kts 272°
2026-04-17 05:51 22.57314 120.47957 2204 ft 198 kts 271°
2026-04-17 05:52 22.57352 120.46511 1934 ft 185 kts 271°
2026-04-17 05:52 22.57397 120.45160 1692 ft 175 kts 271°
2026-04-17 05:52 22.57438 120.43892 1452 ft 161 kts 271°
2026-04-17 05:52 22.57477 120.42726 1251 ft 150 kts 271°
2026-04-17 05:53 22.57509 120.41639 1055 ft 140 kts 271°
2026-04-17 05:53 22.57543 120.40629 876 ft 131 kts 271°
2026-04-17 05:53 22.57576 120.39664 686 ft 127 kts 271°
2026-04-17 05:53 22.57599 120.38711 543 ft 126 kts 270°
2026-04-17 05:54 22.57619 120.37743 380 ft 129 kts 271°
2026-04-17 05:54 22.57650 120.36760 199 ft 129 kts 272°
2026-04-17 05:54 22.57680 120.35789 54 ft 130 kts 271°
2026-04-17 05:54 22.57708 120.34929 45 ft 92 kts 272°
2026-04-17 05:55 22.57725 120.34404 46 ft 48 kts 272°
2026-04-17 05:55 22.57729 120.34210 45 ft 17 kts 265°
2026-04-17 05:55 22.57672 120.34131 45 ft 11 kts 199°
2026-04-17 05:55 22.57627 120.34126 45 ft 0 kts 182°
2026-04-17 05:56 22.57611 120.34125 45 ft 6 kts 182°
2026-04-17 05:57 22.57549 120.34123 45 ft 12 kts 181°
2026-04-17 05:57 22.57457 120.34121 45 ft 11 kts 176°
2026-04-17 05:57 22.57408 120.34182 45 ft 12 kts 104°
2026-04-17 05:57 22.57401 120.34285 44 ft 15 kts 100°
2026-04-17 05:58 22.57350 120.34322 44 ft 9 kts 169°
2026-04-17 05:58 22.57283 120.34324 44 ft 7 kts 190°
2026-04-17 05:58 22.57263 120.34301 44 ft 3 kts 259°
2026-04-17 05:59 22.57266 120.34250 44 ft 1 kts 271°
2026-04-17 05:59 22.57266 120.34246 44 ft 1 kts 271°
2026-04-17 05:59 22.57266 120.34238 44 ft 1 kts 271°
2026-04-17 05:59 22.57266 120.34231 44 ft 0 kts 271°